Find Shiyan 10

NORAD ID: 49258 Int'l Des: 2021-087 Owner: SAST Country: CN operational
MEOELLIPTICALHEO_ELLIPTICALSEMI_SYNCMOLNIYA

实时位置

正在加载3D地球...

关于 Shiyan 10

正在加载描述...

即将过境

Passes for default location (London). Set your location on the main map for personalized predictions.

高度历史

Loading altitude history...

两行轨道根数

1 49258U 21087A 26084.15707159 .00000723 00000-0 00000+0 0 9992
2 49258 63.1051 229.7633 6965628 269.9206 17.2146 2.00652834 32842
Epoch: Mar 25, 2026 • Age: 555 hours

当前状态

高度 38242.2 km
速度 1.69 km/s
星下点 62.68°N, 0.36°E
发射日期 Sep 27, 2021
运行时间 4.5 years
类型 other

技术详情

分类 Payload
质量 4600.00 kg
干质量 2500.00 kg
总质量 4600.00 kg
长度 5.00 m
直径 2.50 m
跨度 30.00 m
形状 Box + 2 Pan
制造商 SAST
平台类型 SY10
阶段状态 In Orbit
所有者/国家 SAST/CN

Most Searched